User: anonymous   Login
Location: Unspecified
(0.0000°N, 0.0000°E)
Time: 08:41:27
(UTC+02:00)
Language:

Centaur D-1AR AC-41 - Orbit

View from above orbital plane
View from above orbital plane
View from above satellite
View from above satellite

Ground track
Ground track

The orbit data is extracted from the following two-line orbital elements,

1 10976U 78068B   14294.27096144 -.00000184  00000-0  95605-6 0  5008
2 10976 021.3430 178.2043 7164084 022.3555 077.2043 02.22293504294675
Epoch (UTC): 21 October 2014 06:30:11
Eccentricity: 0.7164084
inclination: 21.3430°
perigee height: 655 km
apogee height: 36188 km
right ascension of ascending node: 178.2043°
argument of perigee: 22.3555°
revolutions per day: 2.22293504
mean anomaly at epoch: 77.2043°
orbit number at epoch: 29467

The dashed part of the orbit path shows where the satellite is in the earth's shadow,  

DLR